This is the latest recevied weather packets stored in our database for station/object W6SNO-1. If no packets are shown the sender has not sent any weather packets the latest 10 day(s).
| Time | Temp. | Humidity | Pressure | Rain* | Wind** | Luminosity | Snow |
|---|---|---|---|---|---|---|---|
| 1778185774 | 20.56° C | 65% | 1018.1 hPa | 0 mm | - | 788 W/m² | - |
| 1778185471 | 20.56° C | 65% | 1018.2 hPa | 0 mm | - | 789 W/m² | - |
| 1778185166 | 20° C | 67% | 1018.2 hPa | 0 mm | - | 790 W/m² | - |
| 1778184862 | 20° C | 68% | 1018.3 hPa | 0 mm | - | 794 W/m² | - |
| 1778184559 | 20° C | 68% | 1018.3 hPa | 0 mm | - | 791 W/m² | - |
| 1778184254 | 19.44° C | 69% | 1018.3 hPa | 0 mm | - | 798 W/m² | - |
| 1778183950 | 19.44° C | 69% | 1018.5 hPa | 0 mm | - | 798 W/m² | - |
| 1778183648 | 19.44° C | 69% | 1018.6 hPa | 0 mm | - | 797 W/m² | - |
| 1778183345 | 18.89° C | 71% | 1018.6 hPa | 0 mm | - | 796 W/m² | - |
| 1778183041 | 19.44° C | 70% | 1018.7 hPa | 0 mm | - | 796 W/m² | - |
| 1778182737 | 19.44° C | 69% | 1018.6 hPa | 0 mm | - | 791 W/m² | - |
| 1778182435 | 18.89° C | 71% | 1018.9 hPa | 0 mm | - | 790 W/m² | - |
| 1778182131 | 18.33° C | 72% | 1018.9 hPa | 0 mm | - | 789 W/m² | - |
| 1778181827 | 17.78° C | 73% | 1019 hPa | 0 mm | - | 789 W/m² | - |
| 1778181524 | 18.33° C | 73% | 1018.8 hPa | 0 mm | - | 789 W/m² | - |
| 1778181220 | 18.33° C | 73% | 1019 hPa | 0 mm | - | 786 W/m² | - |
| 1778180918 | 17.78° C | 74% | 1019.1 hPa | 0 mm | - | 787 W/m² | - |
| 1778180616 | 17.78° C | 74% | 1019.1 hPa | 0 mm | - | 779 W/m² | - |
| 1778180314 | 17.78° C | 74% | 1019.1 hPa | 0 mm | - | 764 W/m² | - |
| 1778180011 | 17.78° C | 74% | 1019.1 hPa | 0 mm | - | 775 W/m² | - |
| 1778179708 | 17.22° C | 76% | 1019.3 hPa | 0 mm | - | 762 W/m² | - |
| 1778179406 | 17.22° C | 77% | 1019.3 hPa | 0 mm | - | 766 W/m² | - |
| 1778179102 | 16.67° C | 77% | 1019.2 hPa | 0 mm | - | 753 W/m² | - |
| 1778178800 | 16.67° C | 79% | 1019.2 hPa | 0 mm | - | 756 W/m² | - |
| 1778178497 | 16.67° C | 78% | 1019.4 hPa | 0 mm | - | 782 W/m² | - |
* Rain latest hour (hover to see other rain measurements)
** Current wind speed in m/s (hover to see current wind gust speed)